Location: Newark
(56.0692°N, 115.8617°E)
Time: 12:33:39
(UTC+00:00)

Vanguard 2 Rocket - Pass Details

Date: 03 June 2020
Orbit: 556 x 3325 km, 32.9° (Epoch: 14 July)

Event Time Altitude Azimuth Distance (km) Brightness Sun altitude
Rises 06:23:35 0° 201° (SSW) 3,715 10.6 48.8°
Reaches altitude 10° 06:28:10 10° 171° (S) 3,286 10.2 48.3°
Maximum altitude 06:30:57 12° 151° (SSE) 3,455 10.1 48.0°
Drops below altitude 10° 06:34:13 10° 132° (SE) 3,980 10.2 47.7°
Sets 06:41:36 0° 107° (ESE) 5,759 10.7 46.9°
